Flag for U.S.A. Weather past 2 weeks in Flagstaff, Arizona, U.S.A.

Now
51 °F

Clear.


Feels Like: 51 °F
Forecast: 37 / 69 °F
Wind: No wind

Location: Flagstaff Pulliam Airport

Current Time: May 26, 2015 at 10:03:49 PM

Latest Report: May 26, 2015 at 8:57 PM


Visibility: 10 mi

Pressure: 29.98 "Hg

Humidity: 50%

Dew point: 33 °F

Location of FlagstaffLocation

Historic Weather in Flagstaff — Graph

°F

Flagstaff temperature yesterday

Maximum temperature yesterday: 57 °F (at 1:57 PM)
Minimum temperature yesterday: 43 °F (at 2:57 AM)
Average temperature yesterday: 49 °F

Past Weeks' High & Low Weather Summary

 TemperatureHumidityPressure
High67 °F (May 26, 2:57 PM)100% (May 14, 4:57 AM)30.13 "Hg (May 14, 4:57 AM)
Low27 °F (May 19, 4:57 AM)20% (May 12, 12:57 PM)29.68 "Hg (May 14, 4:57 PM)
Average46 °F65%29.91 "Hg
* Reported May 11 8:57 PM — May 26 8:57 PM, Flagstaff, Weather by CustomWeather, © 2015

Note: Actual official high and low records may vary slightly from our data, if they occured in-between our weather recording intervals... More about our weather records

Advertising

Flagstaff weather history for previous 24 hours

 ConditionsComfort  
Time TempWeatherWind HumidityBarometerVisibility
8:57 PM
Tue, May 26
51 °FClear.No wind50%29.98 "Hg10 mi
7:57 PM56 °FClear.6 mph40%29.95 "Hg10 mi
6:57 PM61 °FSunny.10 mph32%29.94 "Hg10 mi
5:57 PM64 °FSunny.15 mph28%29.96 "Hg10 mi
4:57 PM66 °FSunny.15 mph26%29.95 "Hg10 mi
3:57 PM66 °FPartly sunny.15 mph27%29.96 "Hg10 mi
2:57 PM67 °FPassing clouds.14 mph27%29.97 "Hg10 mi
1:57 PM66 °FScattered clouds.14 mph29%29.97 "Hg10 mi
12:57 PM65 °FPassing clouds.12 mph29%29.97 "Hg10 mi
11:57 AM64 °FPassing clouds.17 mph25%29.98 "Hg10 mi
10:57 AM62 °FPartly sunny.13 mph32%29.98 "Hg10 mi
9:57 AM61 °FScattered clouds.7 mph36%29.98 "Hg10 mi
8:57 AM58 °FSunny.9 mph47%29.98 "Hg10 mi
7:57 AM53 °FSunny.3 mph55%30.00 "Hg10 mi
6:57 AM47 °FSunny.3 mph83%30.00 "Hg10 mi
5:57 AM36 °FSunny.No wind92%30.03 "Hg10 mi
4:57 AM35 °FClear.No wind96%30.03 "Hg10 mi
3:57 AM35 °FClear.No wind96%30.03 "Hg10 mi
2:57 AM37 °FClear.No wind96%30.00 "Hg10 mi
1:57 AM39 °FClear.No wind93%29.98 "Hg10 mi
12:57 AM42 °FClear.No wind92%30.01 "Hg10 mi
11:57 PM
Mon, May 25
44 °FClear.3 mph89%30.01 "Hg10 mi
10:57 PM45 °FPassing clouds.6 mph90%29.98 "Hg10 mi
Weather by CustomWeather, © 2015

See weather overviewHow to use our weather pages